VK2OB Weather Reports


Display with metric or nautical units.
time (UTC)temp
F
wind
direction
speed
MPH
gust
MPH
rain 1hr
in
rain 24hr
in
rain mn
in
humidity
%
barometer
mb
20260510071242 67 180 1.0 2.0 0.00 0.00 0.00 73 1028.6
20260510070743 67 225 0.0 2.0 0.00 0.00 0.00 73 1028.4
20260510070244 67 180 2.0 5.0 0.00 0.00 0.00 73 1028.4
20260510065744 67 180 0.0 2.0 0.00 0.00 0.00 72 1028.3
20260510065246 68 293 1.0 2.0 0.00 0.00 0.00 72 1028.3
20260510064747 68 180 0.0 2.0 0.00 0.00 0.00 72 1028.2
20260510064242 68 225 3.0 6.0 0.00 0.00 0.00 70 1028.2
20260510063508 68 180 2.0 5.0 0.00 0.00 0.00 69 1028.1
20260510063010 69 135 2.0 4.0 0.00 0.00 0.00 68 1028.0
20260510062511 69 270 1.0 2.0 0.00 0.00 0.00 67 1028.0
20260510062012 69 315 1.0 2.0 0.00 0.00 0.00 67 1028.0
20260510061513 69 225 0.0 3.0 0.00 0.00 0.00 66 1028.0
20260510061013 69 180 0.0 1.0 0.00 0.00 0.00 67 1027.9
20260510060514 69 158 0.0 1.0 0.00 0.00 0.00 67 1027.8
20260510060016 69 180 1.0 2.0 0.00 0.00 0.00 66 1027.8
20260510055517 69 135 0.0 2.0 0.00 0.00 0.00 66 1027.7
20260510055018 69 315 0.0 2.0 0.00 0.00 0.00 65 1027.6
20260510054513 69 315 2.0 4.0 0.00 0.00 0.00 64 1027.7
20260510053741 69 0 0.0 2.0 0.00 0.00 0.00 63 1027.6
20260510053242 69 225 1.0 2.0 0.00 0.00 0.00 62 1027.6
20260510052742 69 135 1.0 2.0 0.00 0.00 0.00 61 1027.5
20260510052244 70 180 2.0 3.0 0.00 0.00 0.00 59 1027.4
20260510051745 70 180 2.0 3.0 0.00 0.00 0.00 59 1027.4
20260510051246 71 180 2.0 4.0 0.00 0.00 0.00 58 1027.2
20260510050747 71 315 1.0 2.0 0.00 0.00 0.00 57 1027.3
20260510050247 71 135 0.0 1.0 0.00 0.00 0.00 58 1027.2
20260510045749 70 315 2.0 5.0 0.00 0.00 0.00 58 1027.2
20260510045250 70 180 1.0 2.0 0.00 0.00 0.00 59 1027.2
20260510044751 70 225 2.0 4.0 0.00 0.00 0.00 60 1027.2
20260510044252 70 180 1.0 3.0 0.00 0.00 0.00 60 1027.1
20260510043753 71 180 1.0 2.0 0.00 0.00 0.00 59 1027.1
20260510043253 70 225 1.0 2.0 0.00 0.00 0.00 59 1027.1
20260510042754 70 225 1.0 2.0 0.00 0.00 0.00 57 1027.1
20260510042254 70 180 2.0 4.0 0.00 0.00 0.00 57 1027.1
20260510041756 71 45 1.0 2.0 0.00 0.00 0.00 56 1027.1
20260510041257 71 225 1.0 2.0 0.00 0.00 0.00 56 1027.1
20260510040758 71 225 0.0 1.0 0.00 0.00 0.00 55 1027.1
20260510040259 71 180 2.0 4.0 0.00 0.00 0.00 55 1027.1
20260510035800 72 315 1.0 2.0 0.00 0.00 0.00 53 1027.0
20260510035300 72 180 0.0 1.0 0.00 0.00 0.00 52 1027.0
20260510034802 73 225 0.0 2.0 0.00 0.00 0.00 53 1026.9
20260510034303 73 270 1.0 2.0 0.00 0.00 0.00 52 1026.9
20260510033804 73 315 0.0 1.0 0.00 0.00 0.00 52 1026.9
20260510033304 73 315 0.0 1.0 0.00 0.00 0.00 53 1026.9
20260510032806 73 270 0.0 2.0 0.00 0.00 0.00 51 1027.0
20260510032307 73 225 0.0 1.0 0.00 0.00 0.00 52 1027.1
20260510031802 72 135 1.0 2.0 0.00 0.00 0.00 51 1027.2
20260510031030 72 180 1.0 2.0 0.00 0.00 0.00 51 1027.3
20260510030531 72 225 0.0 2.0 0.00 0.00 0.00 51 1027.3
20260510030031 73 90 1.0 2.0 0.00 0.00 0.00 52 1027.3
20260510025532 73 270 1.0 2.0 0.00 0.00 0.00 51 1027.3
20260510025027 73 203 0.0 1.0 0.00 0.00 0.00 51 1027.3
20260510024256 73 315 0.0 1.0 0.00 0.00 0.00 52 1027.4
20260510023757 74 225 2.0 3.0 0.00 0.00 0.00 52 1027.5
20260510023252 74 225 2.0 4.0 0.00 0.00 0.00 52 1027.5
20260510022520 74 225 3.0 5.0 0.00 0.00 0.00 52 1027.6
20260510022021 74 180 2.0 4.0 0.00 0.00 0.00 49 1027.5
20260510021522 74 270 1.0 2.0 0.00 0.00 0.00 47 1027.6
20260510021023 76 225 2.0 4.0 0.00 0.00 0.00 46 1027.7
20260510020523 76 225 2.0 4.0 0.00 0.00 0.00 46 1027.7
20260510020023 75 180 2.0 4.0 0.00 0.00 0.00 45 1027.8
20260510015525 75 225 1.0 2.0 0.00 0.00 0.00 46 1027.9
20260510015026 75 225 3.0 5.0 0.00 0.00 0.00 45 1028.0
20260510014527 75 225 2.0 5.0 0.00 0.00 0.00 44 1028.1
20260510014028 74 225 2.0 4.0 0.00 0.00 0.00 43 1028.2
20260510013528 75 225 2.0 3.0 0.00 0.00 0.00 44 1028.2
20260510013030 74 225 2.0 3.0 0.00 0.00 0.00 46 1028.2
20260510012531 73 180 1.0 2.0 0.00 0.00 0.00 49 1028.2
20260510012032 71 225 2.0 4.0 0.00 0.00 0.00 50 1028.3
20260510011532 71 225 2.0 2.0 0.00 0.00 0.00 51 1028.3
20260510011034 70 180 3.0 4.0 0.00 0.00 0.00 52 1028.4
20260510010535 69 180 2.0 4.0 0.00 0.00 0.00 53 1028.5
20260510010036 70 270 3.0 6.0 0.00 0.00 0.00 52 1028.5
20260510005536 69 270 0.0 1.0 0.00 0.00 0.00 53 1028.5
20260510005038 70 180 3.0 4.0 0.00 0.00 0.00 53 1028.5
20260510004539 69 180 2.0 4.0 0.00 0.00 0.00 53 1028.6
20260510004034 69 225 1.0 2.0 0.00 0.00 0.00 53 1028.7
20260510003302 69 225 1.0 2.0 0.00 0.00 0.00 53 1028.6
20260510002757 69 180 2.0 3.0 0.00 0.00 0.00 56 1028.7
20260510002023 69 225 0.0 1.0 0.00 0.00 0.00 58 1028.6
20260510001524 69 180 2.0 4.0 0.00 0.00 0.00 58 1028.6
20260510001026 69 180 0.0 2.0 0.00 0.00 0.00 58 1028.5
20260510000521 68 225 0.0 1.0 0.00 0.00 0.00 57 1028.6
20260509235743 71 225 2.0 4.0 0.00 0.00 0.00 55 1028.5
20260509235011 72 180 1.0 2.0 0.00 0.00 0.00 53 1028.5
20260509234512 73 180 0.0 1.0 0.00 0.00 0.00 54 1028.5
20260509234013 73 180 0.0 1.0 0.00 0.00 0.00 56 1028.4
20260509233514 71 180 0.0 1.0 0.00 0.00 0.00 61 1028.4
20260509233008 68 180 0.0 1.0 0.00 0.00 0.00 67 1028.4
20260509232236 64 180 0.0 1.0 0.00 0.00 0.00 68 1028.3
20260509231736 64 180 1.0 2.0 0.00 0.00 0.00 67 1028.4
20260509231238 65 180 0.0 1.0 0.00 0.00 0.00 68 1028.4
20260509230739 65 180 1.0 2.0 0.00 0.00 0.00 70 1028.4
20260509230234 64 135 0.0 1.0 0.00 0.00 0.00 72 1028.2
20260509225502 64 135 0.0 0.0 0.00 0.00 0.00 71 1028.1
20260509225002 64 135 0.0 0.0 0.00 0.00 0.00 71 1028.1
20260509224504 64 135 0.0 1.0 0.00 0.00 0.00 75 1028.1
20260509224005 62 135 0.0 1.0 0.00 0.00 0.00 79 1028.1
20260509223506 61 135 0.0 0.0 0.00 0.00 0.00 80 1028.1
20260509223006 60 135 0.0 0.0 0.00 0.00 0.00 81 1028.0
20260509222508 59 135 0.0 1.0 0.00 0.00 0.00 82 1028.1
20260509222009 59 135 0.0 1.0 0.00 0.00 0.00 84 1028.0
20260509221509 58 135 0.0 1.0 0.00 0.00 0.00 84 1028.0
20260509221010 58 135 0.0 1.0 0.00 0.00 0.00 85 1028.0
20260509220512 58 135 0.0 1.0 0.00 0.00 0.00 85 1028.1
20260509220007 58 135 0.0 1.0 0.00 0.00 0.00 86 1028.0
20260509215235 58 135 0.0 0.0 0.00 0.00 0.00 88 1027.9
20260509214736 57 135 0.0 0.0 0.00 0.00 0.00 89 1027.8
20260509214237 57 135 0.0 1.0 0.00 0.00 0.00 91 1027.7
20260509213737 56 135 0.0 1.0 0.00 0.00 0.00 92 1027.7
20260509213239 56 135 0.0 1.0 0.00 0.00 0.00 92 1027.6
20260509212734 55 135 1.0 2.0 0.00 0.00 0.00 92 1027.6
20260509212000 55 135 0.0 1.0 0.00 0.00 0.00 91 1027.5
20260509211502 55 135 1.0 2.0 0.00 0.00 0.00 91 1027.4
20260509211003 54 135 0.0 1.0 0.00 0.00 0.00 91 1027.4
20260509210504 54 135 1.0 2.0 0.00 0.00 0.00 90 1027.4
20260509210005 53 135 1.0 2.0 0.00 0.00 0.00 91 1027.4
20260509205505 53 135 0.0 1.0 0.00 0.00 0.00 90 1027.3
20260509205000 53 135 1.0 2.0 0.00 0.00 0.00 89 1027.3
20260509204227 53 135 0.0 1.0 0.00 0.00 0.00 86 1027.2
20260509203728 54 135 0.0 2.0 0.00 0.00 0.00 85 1027.1
20260509203230 55 135 0.0 1.0 0.00 0.00 0.00 87 1027.0
20260509202731 56 180 0.0 0.0 0.00 0.00 0.00 87 1026.9
20260509202225 56 180 0.0 1.0 0.00 0.00 0.00 87 1026.9
20260509201214 56 225 0.0 0.0 0.00 0.00 0.00 86 1026.8
20260509200440 56 225 0.0 1.0 0.00 0.00 0.00 85 1026.7
20260509195941 56 225 0.0 0.0 0.00 0.00 0.00 85 1026.7
20260509195443 56 225 0.0 0.0 0.00 0.00 0.00 84 1026.7
20260509194944 56 225 0.0 0.0 0.00 0.00 0.00 84 1026.6
20260509194445 56 225 0.0 1.0 0.00 0.00 0.00 84 1026.5
20260509193945 57 225 0.0 0.0 0.00 0.00 0.00 84 1026.5
20260509193446 57 225 0.0 1.0 0.00 0.00 0.00 84 1026.4
20260509192946 57 180 1.0 2.0 0.00 0.00 0.00 83 1026.3
20260509192448 57 225 0.0 0.0 0.00 0.00 0.00 83 1026.3
20260509191949 57 225 0.0 1.0 0.00 0.00 0.00 83 1026.3
20260509191450 57 225 0.0 2.0 0.00 0.00 0.00 84 1026.2
20260509190950 57 180 0.0 0.0 0.00 0.00 0.00 85 1026.1
20260509190451 57 180 0.0 1.0 0.00 0.00 0.00 85 1026.1
20260509185953 57 180 0.0 0.0 0.00 0.00 0.00 84 1026.1
20260509185454 57 180 0.0 1.0 0.00 0.00 0.00 84 1026.0
20260509184955 57 180 0.0 1.0 0.00 0.00 0.00 84 1025.9
20260509184456 57 180 0.0 1.0 0.00 0.00 0.00 82 1025.9
20260509183957 57 180 0.0 1.0 0.00 0.00 0.00 82 1025.9
20260509183451 57 180 0.0 0.0 0.00 0.00 0.00 82 1025.8
20260509182718 58 180 0.0 0.0 0.00 0.00 0.00 82 1025.7
20260509182219 58 180 0.0 1.0 0.00 0.00 0.00 82 1025.7
20260509181719 58 180 0.0 2.0 0.00 0.00 0.00 82 1025.7
20260509181220 58 180 0.0 1.0 0.00 0.00 0.00 82 1025.7
20260509180720 58 225 0.0 1.0 0.00 0.00 0.00 82 1025.7
20260509180222 58 203 0.0 1.0 0.00 0.00 0.00 83 1025.6
20260509175723 58 180 0.0 1.0 0.00 0.00 0.00 83 1025.6
20260509175224 58 225 0.0 2.0 0.00 0.00 0.00 83 1025.6
20260509174725 58 180 0.0 2.0 0.00 0.00 0.00 83 1025.5
20260509174226 58 225 0.0 1.0 0.00 0.00 0.00 83 1025.5
20260509173726 58 225 0.0 1.0 0.00 0.00 0.00 83 1025.5
20260509173228 58 225 0.0 2.0 0.00 0.00 0.00 83 1025.4
20260509172728 58 225 0.0 2.0 0.00 0.00 0.00 83 1025.5
20260509172229 58 225 0.0 1.0 0.00 0.00 0.00 83 1025.5
20260509171731 58 225 1.0 2.0 0.00 0.00 0.00 83 1025.4
20260509171231 58 225 0.0 1.0 0.00 0.00 0.00 83 1025.5
20260509170733 58 225 0.0 1.0 0.00 0.00 0.00 83 1025.5
20260509170234 58 225 0.0 0.0 0.00 0.00 0.00 84 1025.5
20260509165729 58 225 1.0 2.0 0.00 0.00 0.00 84 1025.5
20260509164950 58 225 1.0 2.0 0.00 0.00 0.00 85 1025.5
20260509164218 57 225 0.0 0.0 0.00 0.00 0.00 85 1025.5
20260509163718 57 225 0.0 1.0 0.00 0.00 0.00 85 1025.4
20260509163220 57 225 0.0 0.0 0.00 0.00 0.00 86 1025.5
20260509162715 57 225 0.0 0.0 0.00 0.00 0.00 85 1025.5
20260509161942 57 225 0.0 0.0 0.00 0.00 0.00 85 1025.5
20260509161444 57 225 0.0 0.0 0.00 0.00 0.00 85 1025.6
20260509160945 57 225 0.0 0.0 0.00 0.00 0.00 85 1025.6
20260509160446 57 225 0.0 0.0 0.00 0.00 0.00 85 1025.5
20260509155946 57 225 0.0 0.0 0.00 0.00 0.00 85 1025.6
20260509155448 57 225 0.0 0.0 0.00 0.00 0.00 85 1025.6
20260509154949 57 225 0.0 0.0 0.00 0.00 0.00 85 1025.5
20260509154450 57 225 0.0 0.0 0.00 0.00 0.00 85 1025.5
20260509153951 57 225 0.0 0.0 0.00 0.00 0.00 85 1025.5
20260509153451 57 225 0.0 0.0 0.00 0.00 0.00 84 1025.6
20260509152953 57 225 0.0 0.0 0.00 0.00 0.00 84 1025.7
20260509152454 56 225 0.0 0.0 0.00 0.00 0.00 83 1025.6
20260509151955 56 225 0.0 0.0 0.00 0.00 0.00 83 1025.6
20260509151456 57 225 0.0 0.0 0.00 0.00 0.00 83 1025.6
20260509150957 57 225 0.0 0.0 0.00 0.00 0.00 84 1025.5
20260509150458 57 225 0.0 0.0 0.00 0.00 0.00 83 1025.5
20260509145959 56 225 0.0 0.0 0.00 0.00 0.00 83 1025.5
20260509145459 56 225 0.0 0.0 0.00 0.00 0.00 82 1025.5
20260509145000 56 225 0.0 0.0 0.00 0.00 0.00 82 1025.5
20260509144502 56 225 0.0 0.0 0.00 0.00 0.00 81 1025.5
20260509144003 56 225 0.0 1.0 0.00 0.00 0.00 81 1025.4
20260509143503 57 225 0.0 0.0 0.00 0.00 0.00 80 1025.5
20260509143004 57 225 0.0 0.0 0.00 0.00 0.00 79 1025.5
20260509142506 57 225 0.0 0.0 0.00 0.00 0.00 78 1025.5
20260509142007 58 225 0.0 0.0 0.00 0.00 0.00 78 1025.5
20260509141508 58 225 0.0 1.0 0.00 0.00 0.00 79 1025.5
20260509141009 59 225 0.0 0.0 0.00 0.00 0.00 79 1025.4
20260509140509 59 180 1.0 1.0 0.00 0.00 0.00 80 1025.5
20260509140010 58 225 0.0 1.0 0.00 0.00 0.00 80 1025.5
20260509135512 58 180 0.0 1.0 0.00 0.00 0.00 80 1025.5
20260509135013 58 180 0.0 1.0 0.00 0.00 0.00 80 1025.5
20260509134513 58 225 0.0 1.0 0.00 0.00 0.00 80 1025.5
20260509134007 58 180 1.0 1.0 0.00 0.00 0.00 80 1025.6
20260509133235 57 225 0.0 0.0 0.00 0.00 0.00 80 1025.5
20260509132735 57 225 0.0 1.0 0.00 0.00 0.00 79 1025.6
20260509132236 57 225 0.0 1.0 0.00 0.00 0.00 78 1025.6
20260509131738 57 225 0.0 1.0 0.00 0.00 0.00 77 1025.6
20260509131239 58 225 0.0 0.0 0.00 0.00 0.00 77 1025.6
20260509130740 58 225 0.0 0.0 0.00 0.00 0.00 78 1025.6
20260509130241 58 225 0.0 1.0 0.00 0.00 0.00 77 1025.6
20260509125742 58 225 0.0 0.0 0.00 0.00 0.00 77 1025.6
20260509125242 58 225 0.0 0.0 0.00 0.00 0.00 77 1025.6
20260509124744 59 225 0.0 0.0 0.00 0.00 0.00 78 1025.6
20260509124245 59 225 0.0 1.0 0.00 0.00 0.00 78 1025.6
20260509123746 59 225 0.0 1.0 0.00 0.00 0.00 79 1025.6
20260509123246 58 225 0.0 2.0 0.00 0.00 0.00 80 1025.6
20260509122747 58 180 1.0 3.0 0.00 0.00 0.00 80 1025.6
20260509122249 57 225 1.0 2.0 0.00 0.00 0.00 81 1025.6
20260509121744 57 225 0.0 1.0 0.00 0.00 0.00 81 1025.7
20260509121010 57 225 0.0 1.0 0.00 0.00 0.00 81 1025.7
20260509120510 57 225 0.0 0.0 0.00 0.00 0.00 80 1025.8
20260509120012 57 225 0.0 1.0 0.00 0.00 0.00 80 1025.8
20260509115513 57 225 0.0 0.0 0.00 0.00 0.00 79 1025.8
20260509115014 58 225 0.0 0.0 0.00 0.00 0.00 78 1025.8
20260509114508 58 225 0.0 0.0 0.00 0.00 0.00 78 1025.7
20260509113730 58 225 0.0 0.0 0.00 0.00 0.00 78 1025.7
20260509112952 58 225 0.0 0.0 0.00 0.00 0.00 78 1025.6
20260509112218 58 225 0.0 0.0 0.00 0.00 0.00 77 1025.6
20260509111719 58 225 0.0 0.0 0.00 0.00 0.00 76 1025.6
20260509111215 58 225 0.0 0.0 0.00 0.00 0.00 76 1025.7
20260509110442 59 225 0.0 0.0 0.00 0.00 0.00 76 1025.6
20260509105944 59 225 0.0 1.0 0.00 0.00 0.00 76 1025.6
20260509105445 59 225 1.0 2.0 0.00 0.00 0.00 76 1025.6
20260509104946 59 225 0.0 1.0 0.00 0.00 0.00 78 1025.5
20260509104446 58 225 0.0 0.0 0.00 0.00 0.00 78 1025.5
20260509103942 58 225 0.0 1.0 0.00 0.00 0.00 77 1025.5
20260509103209 58 225 0.0 1.0 0.00 0.00 0.00 76 1025.6
20260509102711 58 225 0.0 0.0 0.00 0.00 0.00 76 1025.5
20260509102212 58 225 0.0 1.0 0.00 0.00 0.00 75 1025.5
20260509101713 58 225 0.0 0.0 0.00 0.00 0.00 75 1025.4
20260509101214 59 225 0.0 0.0 0.00 0.00 0.00 75 1025.4
20260509100715 59 225 0.0 1.0 0.00 0.00 0.00 75 1025.4
20260509100216 59 225 0.0 1.0 0.00 0.00 0.00 73 1025.3
20260509095717 59 225 0.0 1.0 0.00 0.00 0.00 73 1025.3
20260509095218 59 225 0.0 0.0 0.00 0.00 0.00 73 1025.2
20260509094718 59 225 0.0 1.0 0.00 0.00 0.00 72 1025.2
20260509094220 59 225 0.0 1.0 0.00 0.00 0.00 72 1025.2
20260509093721 60 225 0.0 0.0 0.00 0.00 0.00 72 1025.3
20260509093222 60 225 0.0 0.0 0.00 0.00 0.00 72 1025.2
20260509092723 60 225 0.0 1.0 0.00 0.00 0.00 72 1025.2
20260509092223 60 225 0.0 1.0 0.00 0.00 0.00 71 1025.2
20260509091724 60 225 0.0 1.0 0.00 0.00 0.00 71 1025.1
20260509091224 60 225 0.0 1.0 0.00 0.00 0.00 70 1025.0
20260509090726 61 225 0.0 0.0 0.00 0.00 0.00 70 1025.0
20260509090227 61 225 0.0 0.0 0.00 0.00 0.00 69 1025.0
20260509085722 61 225 0.0 0.0 0.00 0.00 0.00 69 1024.9
20260509084949 61 225 0.0 1.0 0.00 0.00 0.00 69 1024.9
20260509084451 61 180 0.0 0.0 0.00 0.00 0.00 69 1024.8
20260509083946 61 180 0.0 0.0 0.00 0.00 0.00 69 1024.7
20260509083213 61 180 0.0 0.0 0.00 0.00 0.00 68 1024.6
20260509082715 61 180 0.0 0.0 0.00 0.00 0.00 68 1024.6
20260509082216 62 180 0.0 0.0 0.00 0.00 0.00 67 1024.6
20260509081717 62 180 0.0 0.0 0.00 0.00 0.00 67 1024.4
20260509081217 62 180 0.0 0.0 0.00 0.00 0.00 66 1024.4
20260509080718 62 180 0.0 0.0 0.00 0.00 0.00 66 1024.3
20260509080220 62 180 0.0 0.0 0.00 0.00 0.00 65 1024.2
20260509075721 62 180 0.0 0.0 0.00 0.00 0.00 65 1024.2
20260509075221 62 180 0.0 0.0 0.00 0.00 0.00 64 1024.1
20260509074722 63 225 0.0 0.0 0.00 0.00 0.00 63 1024.1
20260509074224 63 225 0.0 0.0 0.00 0.00 0.00 62 1024.0
20260509073725 63 225 0.0 0.0 0.00 0.00 0.00 62 1024.0
20260509073226 63 225 0.0 0.0 0.00 0.00 0.00 62 1024.0
20260509072727 64 225 0.0 0.0 0.00 0.00 0.00 61 1023.8
20260509072228 64 225 0.0 0.0 0.00 0.00 0.00 61 1023.8
20260509071729 64 225 0.0 0.0 0.00 0.00 0.00 61 1023.8